Météo par heure à Almazovo

Ce jour, 15 Mai, Samedi

Heure Température Précipitation Vent Pression Humidité
00:00 +14°C° 0 mm 2 m/s 737 mmHg 92%
01:00 +14°C° 0 mm 2 m/s 737 mmHg 91%
02:00 +14°C° 0 mm 2 m/s 736 mmHg 91%
03:00 +14°C° 0 mm 2 m/s 736 mmHg 92%
04:00 +14°C° 0 mm 2 m/s 736 mmHg 93%
05:00 +13°C° 0 mm 3 m/s 736 mmHg 93%
06:00 +14°C° 0 mm 3 m/s 737 mmHg 89%
07:00 +17°C° 0 mm 4 m/s 737 mmHg 84%
08:00 +18°C° 0 mm 4 m/s 738 mmHg 79%
09:00 +19°C° 0.1 mm 5 m/s 738 mmHg 74%
10:00 +19°C° 0.1 mm 5 m/s 738 mmHg 68%
11:00 +20°C° 0.1 mm 6 m/s 738 mmHg 62%
12:00 +20°C° 0.5 mm 6 m/s 738 mmHg 65%
13:00 +20°C° 0.5 mm 6 m/s 738 mmHg 67%
14:00 +20°C° 0.5 mm 7 m/s 738 mmHg 70%
15:00 +19°C° 0.4 mm 6 m/s 738 mmHg 73%
16:00 +19°C° 0.4 mm 6 m/s 738 mmHg 77%
17:00 +17°C° 0.4 mm 6 m/s 738 mmHg 80%
18:00 +16°C° 0.2 mm 5 m/s 738 mmHg 84%
19:00 +15°C° 0.2 mm 4 m/s 738 mmHg 88%
20:00 +13°C° 0.2 mm 4 m/s 739 mmHg 92%
21:00 +13°C° 0 mm 3 m/s 739 mmHg 93%
22:00 +12°C° 0 mm 3 m/s 739 mmHg 93%
23:00 +12°C° 0 mm 3 m/s 739 mmHg 94%

Demain, 16 Mai, Dimanche

Heure Température Précipitation Vent Pression Humidité
00:00 +11°C° 0 mm 3 m/s 739 mmHg 94%
01:00 +11°C° 0 mm 3 m/s 740 mmHg 94%
02:00 +11°C° 0 mm 3 m/s 740 mmHg 94%
03:00 +11°C° 0 mm 3 m/s 740 mmHg 94%
04:00 +11°C° 0 mm 3 m/s 740 mmHg 93%
05:00 +12°C° 0 mm 2 m/s 740 mmHg 93%
06:00 +13°C° 0 mm 3 m/s 740 mmHg 88%
07:00 +16°C° 0 mm 3 m/s 741 mmHg 83%
08:00 +17°C° 0 mm 4 m/s 741 mmHg 78%
09:00 +18°C° 0 mm 4 m/s 741 mmHg 72%
10:00 +19°C° 0 mm 4 m/s 741 mmHg 67%
11:00 +20°C° 0 mm 4 m/s 741 mmHg 62%
12:00 +21°C° 0 mm 4 m/s 741 mmHg 61%
13:00 +21°C° 0 mm 3 m/s 741 mmHg 59%
14:00 +22°C° 0 mm 3 m/s 741 mmHg 57%
15:00 +21°C° 0 mm 3 m/s 741 mmHg 61%
16:00 +21°C° 0 mm 2 m/s 741 mmHg 65%
17:00 +21°C° 0 mm 2 m/s 741 mmHg 68%
18:00 +20°C° 0 mm 1 m/s 741 mmHg 72%
19:00 +19°C° 0 mm 1 m/s 741 mmHg 75%
20:00 +16°C° 0 mm 1 m/s 741 mmHg 79%
21:00 +16°C° 0 mm 1 m/s 740 mmHg 81%
22:00 +15°C° 0 mm 2 m/s 740 mmHg 83%
23:00 +13°C° 0 mm 3 m/s 740 mmHg 85%

Après-demain, 17 Mai, Lundi

Heure Température Précipitation Vent Pression Humidité
00:00 +13°C° 0 mm 3 m/s 740 mmHg 87%
01:00 +13°C° 0 mm 3 m/s 740 mmHg 89%
02:00 +12°C° 0 mm 3 m/s 740 mmHg 91%
03:00 +13°C° 0.1 mm 4 m/s 739 mmHg 91%
04:00 +13°C° 0.1 mm 4 m/s 739 mmHg 91%
05:00 +13°C° 0.1 mm 4 m/s 739 mmHg 90%
06:00 +15°C° 0 mm 5 m/s 739 mmHg 86%
07:00 +17°C° 0 mm 5 m/s 738 mmHg 81%
08:00 +20°C° 0 mm 6 m/s 738 mmHg 77%
09:00 +21°C° 0 mm 6 m/s 738 mmHg 72%
10:00 +23°C° 0 mm 6 m/s 738 mmHg 66%
11:00 +24°C° 0 mm 7 m/s 737 mmHg 61%
12:00 +24°C° 0 mm 7 m/s 737 mmHg 62%
13:00 +24°C° 0 mm 7 m/s 737 mmHg 63%
14:00 +26°C° 0 mm 7 m/s 736 mmHg 63%
15:00 +24°C° 0 mm 7 m/s 736 mmHg 65%
16:00 +24°C° 0 mm 6 m/s 736 mmHg 66%
17:00 +23°C° 0 mm 6 m/s 735 mmHg 67%
18:00 +22°C° 0 mm 5 m/s 735 mmHg 73%
19:00 +20°C° 0 mm 5 m/s 735 mmHg 80%
20:00 +18°C° 0 mm 4 m/s 735 mmHg 86%
21:00 +18°C° 0 mm 4 m/s 735 mmHg 87%
22:00 +18°C° 0 mm 4 m/s 735 mmHg 87%
23:00 +17°C° 0 mm 4 m/s 735 mmHg 88%

18 Mai, Mardi

Heure Température Précipitation Vent Pression Humidité
00:00 +17°C° 0 mm 4 m/s 734 mmHg 89%
01:00 +15°C° 0 mm 4 m/s 734 mmHg 91%
02:00 +15°C° 0 mm 4 m/s 734 mmHg 92%
03:00 +15°C° 0 mm 4 m/s 734 mmHg 93%
04:00 +15°C° 0 mm 4 m/s 734 mmHg 93%
05:00 +15°C° 0 mm 4 m/s 734 mmHg 94%
06:00 +16°C° 0 mm 5 m/s 734 mmHg 89%
07:00 +17°C° 0 mm 6 m/s 734 mmHg 83%
08:00 +18°C° 0 mm 7 m/s 734 mmHg 78%
09:00 +18°C° 0 mm 7 m/s 734 mmHg 78%
10:00 +18°C° 0 mm 7 m/s 734 mmHg 78%
11:00 +20°C° 0 mm 7 m/s 734 mmHg 78%
12:00 +18°C° 0.2 mm 7 m/s 734 mmHg 81%
13:00 +17°C° 0.2 mm 7 m/s 734 mmHg 84%
14:00 +17°C° 0.2 mm 8 m/s 734 mmHg 87%
15:00 +17°C° 0.2 mm 7 m/s 734 mmHg 85%
16:00 +19°C° 0.2 mm 6 m/s 734 mmHg 84%
17:00 +19°C° 0.2 mm 5 m/s 734 mmHg 82%
18:00 +17°C° 0.3 mm 5 m/s 734 mmHg 86%
19:00 +17°C° 0.3 mm 4 m/s 734 mmHg 89%
20:00 +15°C° 0.3 mm 4 m/s 734 mmHg 92%
21:00 +15°C° 0.1 mm 4 m/s 734 mmHg 92%
22:00 +15°C° 0.1 mm 4 m/s 734 mmHg 92%
23:00 +14°C° 0.1 mm 4 m/s 733 mmHg 92%

19 Mai, Mercredi

Heure Température Précipitation Vent Pression Humidité
00:00 +14°C° 0.2 mm 4 m/s 733 mmHg 93%
01:00 +14°C° 0.2 mm 4 m/s 733 mmHg 94%
02:00 +13°C° 0.2 mm 3 m/s 733 mmHg 95%
03:00 +13°C° 0.7 mm 3 m/s 733 mmHg 96%
04:00 +13°C° 0.7 mm 3 m/s 732 mmHg 97%
05:00 +13°C° 0.7 mm 3 m/s 732 mmHg 98%
06:00 +13°C° 1.5 mm 3 m/s 732 mmHg 97%
07:00 +13°C° 1.5 mm 3 m/s 732 mmHg 96%
08:00 +13°C° 1.5 mm 4 m/s 732 mmHg 95%
09:00 +14°C° 0.6 mm 4 m/s 732 mmHg 92%
10:00 +14°C° 0.6 mm 5 m/s 732 mmHg 89%
11:00 +15°C° 0.6 mm 5 m/s 732 mmHg 86%
12:00 +14°C° 1.3 mm 6 m/s 732 mmHg 87%
13:00 +14°C° 1.3 mm 6 m/s 732 mmHg 88%
14:00 +12°C° 1.3 mm 7 m/s 733 mmHg 90%
15:00 +11°C° 0.4 mm 7 m/s 733 mmHg 90%
16:00 +11°C° 0.4 mm 7 m/s 734 mmHg 91%
17:00 +10°C° 0.4 mm 7 m/s 735 mmHg 92%
18:00 +10°C° 0.1 mm 6 m/s 735 mmHg 92%
19:00 +9°C° 0.1 mm 6 m/s 736 mmHg 92%
20:00 +9°C° 0.1 mm 5 m/s 737 mmHg 93%
21:00 +9°C° 0 mm 5 m/s 737 mmHg 93%
22:00 +9°C° 0 mm 5 m/s 737 mmHg 92%
23:00 +8°C° 0 mm 5 m/s 738 mmHg 92%

20 Mai, Jeudi

Heure Température Précipitation Vent Pression Humidité
00:00 +8°C° 0 mm 4 m/s 738 mmHg 93%
01:00 +7°C° 0 mm 4 m/s 738 mmHg 94%
02:00 +8°C° 0 mm 3 m/s 739 mmHg 95%
03:00 +8°C° 0 mm 3 m/s 739 mmHg 96%
04:00 +8°C° 0 mm 3 m/s 740 mmHg 96%
05:00 +8°C° 0 mm 3 m/s 740 mmHg 96%
06:00 +10°C° 0 mm 3 m/s 740 mmHg 90%
07:00 +11°C° 0 mm 3 m/s 741 mmHg 84%
08:00 +13°C° 0 mm 4 m/s 741 mmHg 78%
09:00 +14°C° 0 mm 4 m/s 742 mmHg 72%
10:00 +16°C° 0 mm 3 m/s 742 mmHg 66%
11:00 +17°C° 0 mm 3 m/s 742 mmHg 60%
12:00 +17°C° 0 mm 3 m/s 742 mmHg 58%
13:00 +17°C° 0 mm 2 m/s 742 mmHg 57%
14:00 +18°C° 0 mm 2 m/s 742 mmHg 55%
15:00 +18°C° 0 mm 2 m/s 742 mmHg 57%
16:00 +19°C° 0 mm 1 m/s 742 mmHg 58%
17:00 +19°C° 0 mm 1 m/s 742 mmHg 60%
18:00 +16°C° 0 mm 1 m/s 742 mmHg 64%
19:00 +14°C° 0 mm 1 m/s 742 mmHg 69%
20:00 +13°C° 0 mm 1 m/s 742 mmHg 73%
21:00 +12°C° 0 mm 2 m/s 742 mmHg 74%
22:00 +12°C° 0 mm 2 m/s 742 mmHg 76%
23:00 +10°C° 0 mm 2 m/s 742 mmHg 77%
Voir plus

Nous avons besoin de votre consentement

Meteoprog et ses fournisseurs de services peuvent stocker et accéder à des données personnelles telles que des cookies, des identifiants d'appareils ou d'autres technologies similaires sur votre appareil et traiter ces données pour personnaliser le contenu et les publicités, ainsi que pour fournir des fonctionnalités de médias sociaux et analyser le trafic.

  • Stocker et/ou accéder à des informations sur votre appareil

    Des cookies, des identifiants d'appareils ou d'autres informations peuvent être stockés ou accessibles sur votre appareil aux fins indiquées ci-dessus.

  • Annonces et contenus personnalisés, mesure des annonces et des contenus, connaissance de l'audience et développement de produits

    Les annonces et le contenu peuvent être personnalisés en fonction d'un profil. D'autres données peuvent être ajoutées pour mieux personnaliser les annonces et le contenu. Les performances des publicités et du contenu peuvent être mesurées. Il est possible d'obtenir des informations sur le public qui a vu les publicités et le contenu. Ces données peuvent être utilisées pour développer ou améliorer l'expérience de l'utilisateur, les systèmes et les logiciels.

En cliquant sur "J'accepte", vous autorisez l'utilisation de cookies, des identifiants d'appareils, des balises web ou d'autres technologies similaires. Vos paramètres peuvent être modifiés dans le navigateur de votre appareil.

Dans certains cas, des intérêts légitimes peuvent être invoqués plutôt qu'un consentement. Vous pouvez en savoir plus à ce sujet dans notre Politique de confidentialité et de cookies.